Time,TemperatureF,DewpointF,PressureIn,WindDirection,WindDirectionDegrees,WindSpeedMPH,WindSpeedGustMPH,Humidity,HourlyPrecipIn,Conditions,Clouds,dailyrainin,SoftwareType,DateUTC
2013-03-27 00:04:00,29.5,20.7,28.20,NW,309,2.2,4.3,66,0.00,,,0.00,WSDL version 423,2013-03-27 04:04:00,
2013-03-27 00:09:00,29.5,21.0,28.20,WNW,290,2.7,4.3,67,0.00,,,0.00,WSDL version 423,2013-03-27 04:09:00,
2013-03-27 00:14:00,29.5,21.0,28.23,NE,53,3.2,4.7,67,0.00,,,0.00,WSDL version 423,2013-03-27 04:14:00,
2013-03-27 00:19:00,29.5,21.0,28.23,WNW,301,1.9,4.7,67,0.00,,,0.00,WSDL version 423,2013-03-27 04:19:00,
2013-03-27 00:24:00,29.6,21.1,28.23,NW,315,2.0,4.0,68,0.00,,,0.00,WSDL version 423,2013-03-27 04:24:00,
2013-03-27 00:29:00,29.6,20.9,28.20,NNW,348,3.1,6.3,66,0.00,,,0.00,WSDL version 423,2013-03-27 04:29:00,
2013-03-27 00:34:00,29.7,20.9,28.20,NW,315,2.7,6.3,67,0.00,,,0.00,WSDL version 423,2013-03-27 04:34:00,
2013-03-27 00:39:00,29.7,21.2,28.20,NW,315,1.8,3.8,68,0.00,,,0.00,WSDL version 423,2013-03-27 04:39:00,
2013-03-27 00:44:00,29.7,21.1,28.20,North,5,2.5,4.0,67,0.00,,,0.00,WSDL version 423,2013-03-27 04:44:00,
2013-03-27 00:49:00,29.7,20.9,28.20,North,357,1.9,4.0,66,0.00,,,0.00,WSDL version 423,2013-03-27 04:49:00,
2013-03-27 00:54:00,29.7,21.2,28.20,WSW,238,0.2,3.8,67,0.00,,,0.00,WSDL version 423,2013-03-27 04:54:00,
2013-03-27 00:59:00,29.8,21.3,28.20,NW,304,2.6,4.0,67,0.00,,,0.00,WSDL version 423,2013-03-27 04:59:00,
2013-03-27 01:04:00,29.8,21.3,28.20,NNE,14,1.8,4.3,67,0.00,,,0.00,WSDL version 423,2013-03-27 05:04:00,
2013-03-27 01:09:00,29.9,21.1,28.20,NNW,331,2.1,4.3,66,0.00,,,0.00,WSDL version 423,2013-03-27 05:09:00,
2013-03-27 01:14:00,30.0,21.2,28.20,WNW,303,2.1,3.8,67,0.00,,,0.00,WSDL version 423,2013-03-27 05:14:00,
2013-03-27 01:19:00,30.0,21.2,28.20,NNW,340,1.3,3.8,66,0.00,,,0.00,WSDL version 423,2013-03-27 05:19:00,
2013-03-27 01:24:00,30.0,21.2,28.20,West,270,2.7,4.0,66,0.00,,,0.00,WSDL version 423,2013-03-27 05:24:00,
2013-03-27 01:29:00,30.0,21.2,28.20,NNW,333,2.4,4.3,66,0.00,,,0.00,WSDL version 423,2013-03-27 05:29:00,
2013-03-27 01:34:00,30.0,21.2,28.20,NW,304,1.3,4.3,66,0.00,,,0.00,WSDL version 423,2013-03-27 05:34:00,
2013-03-27 01:39:00,30.0,21.1,28.20,NNW,345,1.5,4.7,66,0.00,,,0.00,WSDL version 423,2013-03-27 05:39:00,
2013-03-27 01:44:00,30.0,21.0,28.20,NW,310,1.0,4.7,66,0.00,,,0.00,WSDL version 423,2013-03-27 05:44:00,
2013-03-27 01:49:00,30.0,21.2,28.20,NW,313,1.8,4.3,66,0.00,,,0.00,WSDL version 423,2013-03-27 05:49:00,
2013-03-27 01:54:00,30.0,21.1,28.20,NNW,344,2.2,4.3,65,0.00,,,0.00,WSDL version 423,2013-03-27 05:54:00,
2013-03-27 01:59:00,30.0,20.9,28.20,SE,133,1.1,4.3,65,0.00,,,0.00,WSDL version 423,2013-03-27 05:59:00,
2013-03-27 02:04:00,30.0,20.9,28.20,South,174,1.9,6.3,65,0.00,,,0.00,WSDL version 423,2013-03-27 06:04:00,
2013-03-27 02:09:00,30.0,20.6,28.20,WNW,298,1.8,6.3,65,0.00,,,0.00,WSDL version 423,2013-03-27 06:09:00,
2013-03-27 02:14:00,30.0,20.9,28.20,NNW,345,1.9,3.8,65,0.00,,,0.00,WSDL version 423,2013-03-27 06:14:00,
2013-03-27 02:19:00,30.0,20.9,28.20,NW,323,1.8,4.9,65,0.00,,,0.00,WSDL version 423,2013-03-27 06:19:00,
2013-03-27 02:24:00,30.0,21.2,28.20,NNE,23,2.2,7.8,66,0.00,,,0.00,WSDL version 423,2013-03-27 06:24:00,
2013-03-27 02:29:00,29.9,21.0,28.20,West,263,2.4,7.8,66,0.00,,,0.00,WSDL version 423,2013-03-27 06:29:00,
2013-03-27 02:34:00,29.8,21.0,28.20,WSW,253,1.5,4.7,66,0.00,,,0.00,WSDL version 423,2013-03-27 06:34:00,
2013-03-27 02:39:00,29.8,21.0,28.20,ENE,73,2.0,4.7,66,0.00,,,0.00,WSDL version 423,2013-03-27 06:39:00,
2013-03-27 02:44:00,29.8,20.7,28.20,West,278,2.8,6.0,65,0.00,,,0.00,WSDL version 423,2013-03-27 06:44:00,
2013-03-27 02:49:00,29.7,20.6,28.20,SW,223,1.9,6.0,65,0.00,,,0.00,WSDL version 423,2013-03-27 06:49:00,
2013-03-27 02:54:00,29.7,20.7,28.20,NNW,340,2.7,4.7,65,0.00,,,0.00,WSDL version 423,2013-03-27 06:54:00,
2013-03-27 02:59:00,29.5,20.6,28.20,NNW,338,2.0,4.9,66,0.00,,,0.00,WSDL version 423,2013-03-27 06:59:00,
2013-03-27 03:04:00,29.4,20.4,28.20,ESE,118,1.6,4.9,65,0.00,,,0.00,WSDL version 423,2013-03-27 07:04:00,
2013-03-27 03:09:00,29.2,20.3,28.20,East,79,1.9,2.9,66,0.00,,,0.00,WSDL version 423,2013-03-27 07:09:00,
2013-03-27 03:14:00,29.0,20.2,28.20,NNW,335,2.5,4.3,66,0.00,,,0.00,WSDL version 423,2013-03-27 07:14:00,
2013-03-27 03:19:00,28.9,20.1,28.20,West,259,2.5,4.3,66,0.00,,,0.00,WSDL version 423,2013-03-27 07:19:00,
2013-03-27 03:24:00,28.8,20.2,28.20,NW,323,2.2,3.8,67,0.00,,,0.00,WSDL version 423,2013-03-27 07:24:00,
2013-03-27 03:29:00,28.8,20.3,28.20,NW,304,3.4,7.6,68,0.00,,,0.00,WSDL version 423,2013-03-27 07:29:00,
2013-03-27 03:34:00,28.8,20.4,28.20,NNE,18,1.2,7.6,67,0.00,,,0.00,WSDL version 423,2013-03-27 07:34:00,
2013-03-27 03:39:00,28.6,20.1,28.20,WNW,285,0.5,3.8,67,0.00,,,0.00,WSDL version 423,2013-03-27 07:39:00,
2013-03-27 03:44:00,28.6,20.2,28.17,West,273,1.1,3.6,67,0.00,,,0.00,WSDL version 423,2013-03-27 07:44:00,
2013-03-27 03:49:00,28.6,20.4,28.17,WNW,284,2.2,5.8,68,0.00,,,0.00,WSDL version 423,2013-03-27 07:49:00,
2013-03-27 03:54:00,28.4,20.2,28.17,WNW,290,2.1,5.8,68,0.00,,,0.00,WSDL version 423,2013-03-27 07:54:00,
2013-03-27 03:59:00,28.4,20.5,28.17,West,280,0.9,4.0,69,0.00,,,0.00,WSDL version 423,2013-03-27 07:59:00,
2013-03-27 04:09:00,28.3,20.2,28.17,WNW,298,1.6,6.3,69,0.00,,,0.00,WSDL version 423,2013-03-27 08:09:00,
2013-03-27 04:14:00,28.2,20.4,28.17,West,270,0.0,6.3,69,0.00,,,0.00,WSDL version 423,2013-03-27 08:14:00,
2013-03-27 04:19:00,28.2,20.4,28.17,ENE,73,0.6,2.0,69,0.00,,,0.00,WSDL version 423,2013-03-27 08:19:00,
2013-03-27 04:24:00,28.2,20.4,28.17,SW,223,0.8,3.6,69,0.00,,,0.00,WSDL version 423,2013-03-27 08:24:00,
2013-03-27 04:29:00,28.2,20.3,28.17,North,352,1.0,3.6,69,0.00,,,0.00,WSDL version 423,2013-03-27 08:29:00,
2013-03-27 04:34:00,28.0,20.1,28.17,SE,140,1.0,3.4,68,0.00,,,0.00,WSDL version 423,2013-03-27 08:34:00,
2013-03-27 04:39:00,27.9,19.8,28.17,West,270,1.1,2.2,68,0.00,,,0.00,WSDL version 423,2013-03-27 08:39:00,
2013-03-27 04:44:00,27.9,19.9,28.20,SSW,213,0.0,2.0,69,0.00,,,0.00,WSDL version 423,2013-03-27 08:44:00,
2013-03-27 04:49:00,27.9,20.0,28.20,ESE,120,1.5,2.9,69,0.00,,,0.00,WSDL version 423,2013-03-27 08:49:00,
2013-03-27 04:54:00,27.9,20.0,28.20,West,270,1.8,2.9,69,0.00,,,0.00,WSDL version 423,2013-03-27 08:54:00,
2013-03-27 04:59:00,27.9,20.0,28.20,WNW,300,1.2,2.9,69,0.00,,,0.00,WSDL version 423,2013-03-27 08:59:00,
2013-03-27 05:04:00,27.9,20.2,28.20,West,281,1.0,2.5,70,0.00,,,0.00,WSDL version 423,2013-03-27 09:04:00,
2013-03-27 05:09:00,27.9,20.3,28.20,NW,315,1.8,3.1,70,0.00,,,0.00,WSDL version 423,2013-03-27 09:09:00,
2013-03-27 05:14:00,27.9,20.3,28.20,NW,307,0.6,3.1,70,0.00,,,0.00,WSDL version 423,2013-03-27 09:14:00,
2013-03-27 05:19:00,27.8,20.2,28.20,WSW,248,0.0,2.5,70,0.00,,,0.00,WSDL version 423,2013-03-27 09:19:00,
2013-03-27 05:24:00,27.6,19.9,28.20,SSW,195,1.1,2.5,69,0.00,,,0.00,WSDL version 423,2013-03-27 09:24:00,
2013-03-27 05:29:00,27.5,19.9,28.20,East,82,1.7,2.7,70,0.00,,,0.00,WSDL version 423,2013-03-27 09:29:00,
2013-03-27 05:34:00,27.5,20.0,28.20,West,273,1.6,3.1,70,0.00,,,0.00,WSDL version 423,2013-03-27 09:34:00,
2013-03-27 05:39:00,27.5,20.2,28.20,SW,218,0.4,3.1,71,0.00,,,0.00,WSDL version 423,2013-03-27 09:39:00,
2013-03-27 05:44:00,27.6,20.4,28.20,ENE,70,1.0,3.1,71,0.00,,,0.00,WSDL version 423,2013-03-27 09:44:00,
2013-03-27 05:49:00,27.7,20.4,28.20,WSW,245,0.4,2.0,70,0.00,,,0.00,WSDL version 423,2013-03-27 09:49:00,
2013-03-27 05:54:00,27.5,20.1,28.20,WSW,245,1.7,2.9,71,0.00,,,0.00,WSDL version 423,2013-03-27 09:54:00,
2013-03-27 05:59:00,27.5,20.3,28.20,South,170,1.9,3.4,71,0.00,,,0.00,WSDL version 423,2013-03-27 09:59:00,
2013-03-27 06:04:00,27.4,20.1,28.20,South,180,0.7,3.4,71,0.00,,,0.00,WSDL version 423,2013-03-27 10:04:00,
2013-03-27 06:09:00,27.3,19.8,28.20,South,173,1.1,2.9,70,0.00,,,0.00,WSDL version 423,2013-03-27 10:09:00,
2013-03-27 06:14:00,27.3,19.8,28.20,WSW,250,1.6,3.4,70,0.00,,,0.00,WSDL version 423,2013-03-27 10:14:00,
2013-03-27 06:19:00,27.3,19.8,28.20,East,100,1.4,3.4,70,0.00,,,0.00,WSDL version 423,2013-03-27 10:19:00,
2013-03-27 06:24:00,27.1,19.6,28.20,SE,138,1.5,2.9,70,0.00,,,0.00,WSDL version 423,2013-03-27 10:24:00,
2013-03-27 06:29:00,27.1,19.9,28.20,East,95,2.2,2.9,71,0.00,,,0.00,WSDL version 423,2013-03-27 10:29:00,
2013-03-27 06:34:00,27.0,19.8,28.20,SSE,158,2.2,2.9,71,0.00,,,0.00,WSDL version 423,2013-03-27 10:34:00,
2013-03-27 06:39:00,27.0,19.8,28.20,SSW,200,2.2,3.4,71,0.00,,,0.00,WSDL version 423,2013-03-27 10:39:00,
2013-03-27 06:44:00,27.1,19.9,28.20,SW,233,1.2,3.4,71,0.00,,,0.00,WSDL version 423,2013-03-27 10:44:00,
2013-03-27 06:49:00,27.1,19.9,28.20,ESE,115,2.1,3.8,71,0.00,,,0.00,WSDL version 423,2013-03-27 10:49:00,
2013-03-27 06:54:00,27.2,20.0,28.20,ESE,110,0.6,3.8,71,0.00,,,0.00,WSDL version 423,2013-03-27 10:54:00,
2013-03-27 06:59:00,27.1,19.9,28.20,SSE,152,1.8,3.1,71,0.00,,,0.00,WSDL version 423,2013-03-27 10:59:00,
2013-03-27 07:04:00,27.3,19.9,28.20,SSE,158,1.4,3.1,70,0.00,,,0.00,WSDL version 423,2013-03-27 11:04:00,
2013-03-27 07:09:00,27.2,19.7,28.20,SE,133,0.9,2.9,70,0.00,,,0.00,WSDL version 423,2013-03-27 11:09:00,
2013-03-27 07:14:00,27.1,19.6,28.23,ESE,113,1.3,3.4,70,0.00,,,0.00,WSDL version 423,2013-03-27 11:14:00,
2013-03-27 07:19:00,27.2,19.8,28.23,NE,45,1.0,5.4,70,0.00,,,0.00,WSDL version 423,2013-03-27 11:19:00,
2013-03-27 07:24:00,27.1,19.5,28.23,SSW,213,1.2,5.4,70,0.00,,,0.00,WSDL version 423,2013-03-27 11:24:00,
2013-03-27 07:29:00,27.0,19.4,28.23,South,173,0.6,2.2,70,0.00,,,0.00,WSDL version 423,2013-03-27 11:29:00,
2013-03-27 07:34:00,27.0,19.4,28.23,ESE,110,1.3,2.0,70,0.00,,,0.00,WSDL version 423,2013-03-27 11:34:00,
2013-03-27 07:39:00,27.0,19.4,28.23,SSE,150,1.0,3.4,70,0.00,,,0.00,WSDL version 423,2013-03-27 11:39:00,
2013-03-27 07:44:00,27.0,19.4,28.23,SSW,197,1.6,3.4,70,0.00,,,0.00,WSDL version 423,2013-03-27 11:44:00,
2013-03-27 07:49:00,27.0,19.4,28.23,SE,124,1.3,2.5,70,0.00,,,0.00,WSDL version 423,2013-03-27 11:49:00,
2013-03-27 07:54:00,27.0,19.4,28.23,SE,130,1.6,2.9,70,0.00,,,0.00,WSDL version 423,2013-03-27 11:54:00,
2013-03-27 07:59:00,27.0,19.4,28.23,ESE,113,1.0,2.9,70,0.00,,,0.00,WSDL version 423,2013-03-27 11:59:00,
2013-03-27 08:04:00,27.0,19.4,28.23,ENE,65,1.1,3.6,70,0.00,,,0.00,WSDL version 423,2013-03-27 12:04:00,
2013-03-27 08:09:00,27.0,19.4,28.23,ESE,110,1.4,3.6,70,0.00,,,0.00,WSDL version 423,2013-03-27 12:09:00,
2013-03-27 08:14:00,27.0,19.6,28.23,North,8,1.0,4.3,70,0.00,,,0.00,WSDL version 423,2013-03-27 12:14:00,
2013-03-27 08:19:00,27.3,19.8,28.23,SSW,198,0.0,4.3,70,0.00,,,0.00,WSDL version 423,2013-03-27 12:19:00,
2013-03-27 08:24:00,27.3,19.8,28.23,West,270,0.6,6.7,70,0.00,,,0.00,WSDL version 423,2013-03-27 12:24:00,
2013-03-27 08:29:00,27.4,19.7,28.23,ESE,104,2.7,6.7,69,0.00,,,0.00,WSDL version 423,2013-03-27 12:29:00,
2013-03-27 08:34:00,27.7,19.8,28.23,ESE,113,1.6,4.7,69,0.00,,,0.00,WSDL version 423,2013-03-27 12:34:00,
2013-03-27 08:39:00,27.8,20.0,28.23,East,98,0.8,2.9,69,0.00,,,0.00,WSDL version 423,2013-03-27 12:39:00,
2013-03-27 08:44:00,27.9,19.8,28.23,SE,135,1.9,2.7,68,0.00,,,0.00,WSDL version 423,2013-03-27 12:44:00,
2013-03-27 08:54:00,28.4,20.0,28.23,ENE,63,2.7,5.8,67,0.00,,,0.00,WSDL version 423,2013-03-27 12:54:00,
2013-03-27 08:59:00,28.7,19.7,28.26,NNW,340,2.0,6.0,65,0.00,,,0.00,WSDL version 423,2013-03-27 12:59:00,
2013-03-27 09:04:00,29.0,19.6,28.26,NNE,25,0.2,6.0,64,0.00,,,0.00,WSDL version 423,2013-03-27 13:04:00,
2013-03-27 09:09:00,29.3,19.3,28.26,NE,37,2.3,4.9,62,0.00,,,0.00,WSDL version 423,2013-03-27 13:09:00,
2013-03-27 09:14:00,29.6,18.6,28.26,NE,45,2.4,9.8,58,0.00,,,0.00,WSDL version 423,2013-03-27 13:14:00,
2013-03-27 09:19:00,30.1,18.4,28.26,NNW,335,2.8,9.8,57,0.00,,,0.00,WSDL version 423,2013-03-27 13:19:00,
2013-03-27 09:24:00,30.8,19.0,28.26,NW,305,1.6,4.3,58,0.00,,,0.00,WSDL version 423,2013-03-27 13:24:00,
2013-03-27 09:29:00,31.5,19.4,28.23,NW,309,2.3,4.3,56,0.00,,,0.00,WSDL version 423,2013-03-27 13:29:00,
2013-03-27 09:34:00,32.2,18.3,28.23,NNE,30,1.9,4.3,55,0.00,,,0.00,WSDL version 423,2013-03-27 13:34:00,
2013-03-27 09:39:00,32.2,17.4,28.23,West,270,0.7,3.6,53,0.00,,,0.00,WSDL version 423,2013-03-27 13:39:00,
2013-03-27 09:44:00,32.3,16.9,28.26,NNW,338,1.8,3.8,52,0.00,,,0.00,WSDL version 423,2013-03-27 13:44:00,
2013-03-27 09:49:00,32.6,16.8,28.26,WNW,303,1.8,3.8,51,0.00,,,0.00,WSDL version 423,2013-03-27 13:49:00,
2013-03-27 09:54:00,32.8,16.0,28.26,WNW,290,4.0,5.8,48,0.00,,,0.00,WSDL version 423,2013-03-27 13:54:00,
2013-03-27 09:59:00,33.1,15.4,28.26,NW,325,3.1,6.5,47,0.00,,,0.00,WSDL version 423,2013-03-27 13:59:00,
2013-03-27 10:04:00,33.5,15.4,28.26,NNW,340,3.5,6.5,46,0.00,,,0.00,WSDL version 423,2013-03-27 14:04:00,
2013-03-27 10:09:00,33.8,14.6,28.26,NW,326,2.6,6.0,45,0.00,,,0.00,WSDL version 423,2013-03-27 14:09:00,
2013-03-27 10:14:00,34.0,14.7,28.26,NE,40,1.9,5.6,45,0.00,,,0.00,WSDL version 423,2013-03-27 14:14:00,
2013-03-27 10:19:00,34.1,14.8,28.26,WNW,295,3.6,4.9,44,0.00,,,0.00,WSDL version 423,2013-03-27 14:19:00,
2013-03-27 10:24:00,34.2,15.3,28.26,North,3,1.9,4.9,46,0.00,,,0.00,WSDL version 423,2013-03-27 14:24:00,
2013-03-27 10:29:00,34.7,16.3,28.26,WNW,295,2.0,4.7,46,0.00,,,0.00,WSDL version 423,2013-03-27 14:29:00,
2013-03-27 10:34:00,35.0,16.2,28.26,West,265,3.2,5.4,45,0.00,,,0.00,WSDL version 423,2013-03-27 14:34:00,
2013-03-27 10:39:00,35.1,15.7,28.26,NNE,13,2.8,5.4,44,0.00,,,0.00,WSDL version 423,2013-03-27 14:39:00,
2013-03-27 10:44:00,35.4,15.8,28.26,WNW,290,4.4,6.3,43,0.00,,,0.00,WSDL version 423,2013-03-27 14:44:00,
2013-03-27 10:49:00,36.1,15.9,28.26,WNW,303,2.5,6.3,43,0.00,,,0.00,WSDL version 423,2013-03-27 14:49:00,
2013-03-27 10:54:00,36.7,16.3,28.26,North,350,3.2,4.3,42,0.00,,,0.00,WSDL version 423,2013-03-27 14:54:00,
2013-03-27 10:59:00,37.0,16.1,28.26,WNW,288,2.8,7.8,42,0.00,,,0.00,WSDL version 423,2013-03-27 14:59:00,
2013-03-27 11:04:00,37.5,16.5,28.26,NW,304,3.1,7.8,42,0.00,,,0.00,WSDL version 423,2013-03-27 15:04:00,
2013-03-27 11:09:00,38.4,17.3,28.26,NW,315,2.2,4.3,42,0.00,,,0.00,WSDL version 423,2013-03-27 15:09:00,
2013-03-27 11:14:00,39.3,17.4,28.26,NW,326,3.2,6.3,40,0.00,,,0.00,WSDL version 423,2013-03-27 15:14:00,
2013-03-27 11:19:00,39.0,16.8,28.26,NW,305,3.4,6.3,41,0.00,,,0.00,WSDL version 423,2013-03-27 15:19:00,
2013-03-27 11:24:00,39.2,16.9,28.26,North,358,3.6,5.8,40,0.00,,,0.00,WSDL version 423,2013-03-27 15:24:00,
2013-03-27 11:29:00,39.3,17.0,28.26,North,11,4.0,6.3,40,0.00,,,0.00,WSDL version 423,2013-03-27 15:29:00,
2013-03-27 11:34:00,39.3,16.8,28.26,North,350,3.6,6.3,40,0.00,,,0.00,WSDL version 423,2013-03-27 15:34:00,
2013-03-27 11:39:00,39.6,17.1,28.26,WNW,301,2.7,6.3,40,0.00,,,0.00,WSDL version 423,2013-03-27 15:39:00,
2013-03-27 11:44:00,40.2,17.3,28.26,NW,305,2.7,6.0,39,0.00,,,0.00,WSDL version 423,2013-03-27 15:44:00,
2013-03-27 11:49:00,40.7,17.6,28.26,NW,315,4.1,6.5,38,0.00,,,0.00,WSDL version 423,2013-03-27 15:49:00,
2013-03-27 11:54:00,41.0,18.0,28.26,WNW,293,3.5,6.5,39,0.00,,,0.00,WSDL version 423,2013-03-27 15:54:00,
2013-03-27 11:59:00,41.5,18.2,28.26,NW,315,2.9,5.8,38,0.00,,,0.00,WSDL version 423,2013-03-27 15:59:00,
2013-03-27 12:04:00,41.5,17.8,28.26,WNW,298,3.1,5.8,38,0.00,,,0.00,WSDL version 423,2013-03-27 16:04:00,
2013-03-27 12:09:00,41.8,18.4,28.26,South,170,2.0,5.4,39,0.00,,,0.00,WSDL version 423,2013-03-27 16:09:00,
2013-03-27 12:14:00,42.6,19.1,28.26,North,357,3.0,4.9,38,0.00,,,0.00,WSDL version 423,2013-03-27 16:14:00,
2013-03-27 12:19:00,43.3,19.4,28.26,North,360,2.4,4.9,38,0.00,,,0.00,WSDL version 423,2013-03-27 16:19:00,
2013-03-27 12:24:00,43.1,19.3,28.26,West,265,2.7,4.3,38,0.00,,,0.00,WSDL version 423,2013-03-27 16:24:00,
2013-03-27 12:29:00,42.8,19.1,28.26,WNW,293,2.8,4.3,39,0.00,,,0.00,WSDL version 423,2013-03-27 16:29:00,
2013-03-27 12:34:00,42.7,19.2,28.26,NW,313,2.5,6.7,38,0.00,,,0.00,WSDL version 423,2013-03-27 16:34:00,
2013-03-27 12:39:00,43.2,19.3,28.26,West,278,3.5,6.7,38,0.00,,,0.00,WSDL version 423,2013-03-27 16:39:00,
2013-03-27 12:44:00,43.2,19.3,28.26,WNW,298,4.2,5.8,38,0.00,,,0.00,WSDL version 423,2013-03-27 16:44:00,
2013-03-27 12:49:00,42.3,18.5,28.26,West,278,3.4,5.8,38,0.00,,,0.00,WSDL version 423,2013-03-27 16:49:00,
2013-03-27 12:54:00,42.2,18.4,28.26,WSW,248,3.8,5.8,38,0.00,,,0.00,WSDL version 423,2013-03-27 16:54:00,
2013-03-27 12:59:00,42.2,18.4,28.26,NNW,330,3.4,5.6,38,0.00,,,0.00,WSDL version 423,2013-03-27 16:59:00,
2013-03-27 13:04:00,42.2,18.4,28.26,WNW,283,3.4,5.8,38,0.00,,,0.00,WSDL version 423,2013-03-27 17:04:00,
2013-03-27 13:09:00,42.2,18.4,28.26,WNW,298,3.4,6.5,38,0.00,,,0.00,WSDL version 423,2013-03-27 17:09:00,
2013-03-27 13:14:00,42.5,18.7,28.23,WNW,284,3.1,6.5,38,0.00,,,0.00,WSDL version 423,2013-03-27 17:14:00,
2013-03-27 13:19:00,42.7,18.9,28.23,WNW,293,4.2,6.3,38,0.00,,,0.00,WSDL version 423,2013-03-27 17:19:00,
2013-03-27 13:24:00,42.5,18.6,28.23,WNW,298,3.5,6.3,38,0.00,,,0.00,WSDL version 423,2013-03-27 17:24:00,
2013-03-27 13:29:00,42.6,18.8,28.26,WNW,290,3.4,5.4,38,0.00,,,0.00,WSDL version 423,2013-03-27 17:29:00,
2013-03-27 13:34:00,42.8,18.9,28.26,NW,318,3.9,5.8,38,0.00,,,0.00,WSDL version 423,2013-03-27 17:34:00,
2013-03-27 13:39:00,43.2,19.3,28.26,West,276,3.1,5.8,38,0.00,,,0.00,WSDL version 423,2013-03-27 17:39:00,
2013-03-27 13:44:00,43.3,19.4,28.23,NW,320,3.7,5.4,38,0.00,,,0.00,WSDL version 423,2013-03-27 17:44:00,
2013-03-27 13:49:00,43.5,19.6,28.23,South,186,3.8,6.5,38,0.00,,,0.00,WSDL version 423,2013-03-27 17:49:00,
2013-03-27 13:54:00,43.7,19.8,28.23,WNW,293,4.1,6.5,38,0.00,,,0.00,WSDL version 423,2013-03-27 17:54:00,
2013-03-27 13:59:00,44.0,20.0,28.23,NW,309,4.8,7.2,38,0.00,,,0.00,WSDL version 423,2013-03-27 17:59:00,
2013-03-27 14:04:00,43.5,19.2,28.23,WNW,300,4.5,7.6,38,0.00,,,0.00,WSDL version 423,2013-03-27 18:04:00,
2013-03-27 14:09:00,43.8,19.8,28.23,West,270,3.2,7.6,38,0.00,,,0.00,WSDL version 423,2013-03-27 18:09:00,
2013-03-27 14:14:00,44.4,20.2,28.23,NW,310,3.6,4.9,38,0.00,,,0.00,WSDL version 423,2013-03-27 18:14:00,
2013-03-27 14:19:00,44.2,20.2,28.23,WNW,303,4.1,5.8,38,0.00,,,0.00,WSDL version 423,2013-03-27 18:19:00,
2013-03-27 14:24:00,43.8,19.8,28.23,NW,307,3.0,6.5,38,0.00,,,0.00,WSDL version 423,2013-03-27 18:24:00,
2013-03-27 14:29:00,43.7,19.6,28.23,WNW,300,4.1,6.5,37,0.00,,,0.00,WSDL version 423,2013-03-27 18:29:00,
2013-03-27 14:34:00,43.8,19.8,28.23,NNW,338,3.2,6.3,38,0.00,,,0.00,WSDL version 423,2013-03-27 18:34:00,
2013-03-27 14:39:00,44.4,20.1,28.23,West,278,4.7,6.7,37,0.00,,,0.00,WSDL version 423,2013-03-27 18:39:00,
2013-03-27 14:44:00,44.8,20.1,28.23,ENE,63,3.4,6.7,37,0.00,,,0.00,WSDL version 423,2013-03-27 18:44:00,
2013-03-27 14:49:00,45.3,20.6,28.23,WNW,293,3.7,5.8,37,0.00,,,0.00,WSDL version 423,2013-03-27 18:49:00,
2013-03-27 14:54:00,46.0,21.2,28.23,WNW,293,3.3,5.6,37,0.00,,,0.00,WSDL version 423,2013-03-27 18:54:00,
2013-03-27 14:59:00,45.8,21.0,28.20,North,350,3.3,5.6,37,0.00,,,0.00,WSDL version 423,2013-03-27 18:59:00,
2013-03-27 15:04:00,46.1,21.2,28.20,WNW,300,3.8,5.6,37,0.00,,,0.00,WSDL version 423,2013-03-27 19:04:00,
2013-03-27 15:09:00,46.0,20.0,28.20,NW,326,3.9,8.5,35,0.00,,,0.00,WSDL version 423,2013-03-27 19:09:00,
2013-03-27 15:14:00,45.8,19.7,28.20,NW,320,3.2,8.5,35,0.00,,,0.00,WSDL version 423,2013-03-27 19:14:00,
2013-03-27 15:19:00,46.0,20.2,28.20,NW,313,4.3,5.6,35,0.00,,,0.00,WSDL version 423,2013-03-27 19:19:00,
2013-03-27 15:24:00,46.6,20.8,28.20,West,276,4.8,7.6,34,0.00,,,0.00,WSDL version 423,2013-03-27 19:24:00,
2013-03-27 15:29:00,46.7,20.5,28.20,SW,230,2.7,7.6,35,0.00,,,0.00,WSDL version 423,2013-03-27 19:29:00,
2013-03-27 15:34:00,46.7,20.7,28.20,WNW,293,3.5,5.6,35,0.00,,,0.00,WSDL version 423,2013-03-27 19:34:00,
2013-03-27 15:39:00,47.2,21.4,28.20,NW,312,3.9,8.1,35,0.00,,,0.00,WSDL version 423,2013-03-27 19:39:00,
2013-03-27 15:44:00,47.1,20.6,28.20,NW,309,3.5,8.1,34,0.00,,,0.00,WSDL version 423,2013-03-27 19:44:00,
2013-03-27 15:49:00,46.9,20.4,28.20,WNW,283,3.9,6.0,35,0.00,,,0.00,WSDL version 423,2013-03-27 19:49:00,
2013-03-27 15:54:00,46.6,20.1,28.20,West,281,3.5,6.3,35,0.00,,,0.00,WSDL version 423,2013-03-27 19:54:00,
2013-03-27 15:59:00,47.2,21.3,28.20,West,262,3.4,7.2,35,0.00,,,0.00,WSDL version 423,2013-03-27 19:59:00,
2013-03-27 16:04:00,47.3,21.0,28.20,North,350,2.6,7.2,35,0.00,,,0.00,WSDL version 423,2013-03-27 20:04:00,
2013-03-27 16:09:00,47.3,20.9,28.20,West,264,4.1,6.5,35,0.00,,,0.00,WSDL version 423,2013-03-27 20:09:00,
2013-03-27 16:14:00,47.4,20.8,28.20,NNW,330,4.4,6.5,33,0.00,,,0.00,WSDL version 423,2013-03-27 20:14:00,
2013-03-27 16:19:00,46.9,19.3,28.20,NNW,328,3.2,7.6,33,0.00,,,0.00,WSDL version 423,2013-03-27 20:19:00,
2013-03-27 16:24:00,46.9,20.0,28.20,WNW,303,3.1,7.6,34,0.00,,,0.00,WSDL version 423,2013-03-27 20:24:00,
2013-03-27 16:29:00,47.0,19.8,28.17,WNW,295,4.1,5.6,34,0.00,,,0.00,WSDL version 423,2013-03-27 20:29:00,
2013-03-27 16:34:00,47.1,19.3,28.17,NW,304,3.4,5.6,33,0.00,,,0.00,WSDL version 423,2013-03-27 20:34:00,
2013-03-27 16:39:00,47.2,19.3,28.17,WNW,295,3.5,6.3,33,0.00,,,0.00,WSDL version 423,2013-03-27 20:39:00,
2013-03-27 16:44:00,47.4,19.8,28.17,WNW,293,3.1,6.3,33,0.00,,,0.00,WSDL version 423,2013-03-27 20:44:00,
2013-03-27 16:49:00,47.9,20.3,28.17,NW,305,3.4,6.0,33,0.00,,,0.00,WSDL version 423,2013-03-27 20:49:00,
2013-03-27 16:54:00,48.0,20.1,28.17,WNW,293,2.2,6.0,33,0.00,,,0.00,WSDL version 423,2013-03-27 20:54:00,
2013-03-27 16:59:00,48.0,19.9,28.17,NNW,345,3.2,5.6,32,0.00,,,0.00,WSDL version 423,2013-03-27 20:59:00,
2013-03-27 17:04:00,47.9,19.9,28.17,WNW,293,4.9,6.3,32,0.00,,,0.00,WSDL version 423,2013-03-27 21:04:00,
2013-03-27 17:09:00,48.0,19.3,28.17,SW,228,3.2,6.3,32,0.00,,,0.00,WSDL version 423,2013-03-27 21:09:00,
2013-03-27 17:14:00,48.3,19.9,28.17,WNW,288,3.7,5.4,32,0.00,,,0.00,WSDL version 423,2013-03-27 21:14:00,
2013-03-27 17:19:00,48.5,19.6,28.17,NW,318,3.0,4.7,31,0.00,,,0.00,WSDL version 423,2013-03-27 21:19:00,
2013-03-27 17:24:00,48.4,19.9,28.17,West,270,2.6,4.3,32,0.00,,,0.00,WSDL version 423,2013-03-27 21:24:00,
2013-03-27 17:29:00,48.7,20.1,28.17,NW,307,1.9,5.8,31,0.00,,,0.00,WSDL version 423,2013-03-27 21:29:00,
2013-03-27 17:34:00,48.4,19.4,28.17,NW,305,3.7,5.8,31,0.00,,,0.00,WSDL version 423,2013-03-27 21:34:00,
2013-03-27 17:39:00,48.5,19.5,28.17,West,278,3.9,6.3,32,0.00,,,0.00,WSDL version 423,2013-03-27 21:39:00,
2013-03-27 17:44:00,48.5,19.5,28.17,NW,312,3.8,7.2,31,0.00,,,0.00,WSDL version 423,2013-03-27 21:44:00,
2013-03-27 17:54:00,48.0,18.8,28.17,WNW,284,3.8,6.9,31,0.00,,,0.00,WSDL version 423,2013-03-27 21:54:00,
2013-03-27 17:59:00,48.3,19.1,28.17,NW,305,3.2,4.9,31,0.00,,,0.00,WSDL version 423,2013-03-27 21:59:00,
2013-03-27 18:04:00,48.0,18.8,28.17,NW,304,3.4,5.4,31,0.00,,,0.00,WSDL version 423,2013-03-27 22:04:00,
2013-03-27 18:09:00,47.7,18.5,28.17,NW,315,3.2,6.3,31,0.00,,,0.00,WSDL version 423,2013-03-27 22:09:00,
2013-03-27 18:14:00,47.6,18.2,28.17,West,276,3.7,6.3,31,0.00,,,0.00,WSDL version 423,2013-03-27 22:14:00,
2013-03-27 18:19:00,47.6,18.6,28.17,NNW,338,3.2,5.8,31,0.00,,,0.00,WSDL version 423,2013-03-27 22:19:00,
2013-03-27 18:24:00,47.3,18.2,28.17,WNW,284,4.7,7.2,31,0.00,,,0.00,WSDL version 423,2013-03-27 22:24:00,
2013-03-27 18:29:00,47.2,17.9,28.17,NW,323,3.4,7.2,30,0.00,,,0.00,WSDL version 423,2013-03-27 22:29:00,
2013-03-27 18:34:00,46.9,17.6,28.17,NW,305,2.7,6.3,31,0.00,,,0.00,WSDL version 423,2013-03-27 22:34:00,
2013-03-27 18:39:00,46.9,17.9,28.17,NNW,338,3.1,4.9,31,0.00,,,0.00,WSDL version 423,2013-03-27 22:39:00,
2013-03-27 18:44:00,46.7,17.7,28.17,NNE,20,2.7,5.6,31,0.00,,,0.00,WSDL version 423,2013-03-27 22:44:00,
2013-03-27 18:49:00,46.4,17.4,28.17,WNW,288,2.4,5.6,31,0.00,,,0.00,WSDL version 423,2013-03-27 22:49:00,
2013-03-27 18:54:00,46.4,17.4,28.17,North,358,2.5,5.6,31,0.00,,,0.00,WSDL version 423,2013-03-27 22:54:00,
2013-03-27 18:59:00,46.5,17.5,28.17,NNE,20,2.2,5.6,31,0.00,,,0.00,WSDL version 423,2013-03-27 22:59:00,
2013-03-27 19:04:00,46.7,17.7,28.17,North,352,2.3,4.7,31,0.00,,,0.00,WSDL version 423,2013-03-27 23:04:00,
2013-03-27 19:09:00,46.3,17.6,28.17,NNW,328,1.9,5.6,31,0.00,,,0.00,WSDL version 423,2013-03-27 23:09:00,
2013-03-27 19:14:00,45.7,17.3,28.17,NW,312,3.9,8.5,32,0.00,,,0.00,WSDL version 423,2013-03-27 23:14:00,
2013-03-27 19:19:00,45.3,17.0,28.17,NW,310,2.4,8.5,32,0.00,,,0.00,WSDL version 423,2013-03-27 23:19:00,
2013-03-27 19:24:00,45.1,17.0,28.17,North,350,3.2,5.4,32,0.00,,,0.00,WSDL version 423,2013-03-27 23:24:00,
2013-03-27 19:29:00,45.1,17.0,28.17,NW,323,3.1,5.4,32,0.00,,,0.00,WSDL version 423,2013-03-27 23:29:00,
2013-03-27 19:34:00,44.5,16.5,28.17,South,174,2.3,5.4,32,0.00,,,0.00,WSDL version 423,2013-03-27 23:34:00,
2013-03-27 19:39:00,44.1,16.1,28.17,NNW,332,3.0,4.7,32,0.00,,,0.00,WSDL version 423,2013-03-27 23:39:00,
2013-03-27 19:44:00,43.4,16.0,28.17,North,10,2.0,4.7,33,0.00,,,0.00,WSDL version 423,2013-03-27 23:44:00,
2013-03-27 19:49:00,42.8,15.7,28.17,WNW,293,1.1,3.4,33,0.00,,,0.00,WSDL version 423,2013-03-27 23:49:00,
2013-03-27 19:54:00,42.3,15.3,28.17,NNE,15,1.8,3.6,33,0.00,,,0.00,WSDL version 423,2013-03-27 23:54:00,
2013-03-27 19:59:00,42.0,15.0,28.17,West,280,1.5,3.6,33,0.00,,,0.00,WSDL version 423,2013-03-27 23:59:00,
2013-03-27 20:04:00,41.6,15.0,28.17,NNE,23,0.6,3.6,34,0.00,,,0.00,WSDL version 423,2013-03-28 00:04:00,
2013-03-27 20:09:00,41.3,15.0,28.17,West,260,1.7,3.1,34,0.00,,,0.00,WSDL version 423,2013-03-28 00:09:00,
2013-03-27 20:14:00,41.3,15.0,28.17,NNE,20,1.2,3.1,34,0.00,,,0.00,WSDL version 423,2013-03-28 00:14:00,
2013-03-27 20:19:00,40.9,14.9,28.17,SSW,197,0.1,2.7,35,0.00,,,0.00,WSDL version 423,2013-03-28 00:19:00,
2013-03-27 20:24:00,40.5,15.0,28.17,NE,51,1.8,4.0,35,0.00,,,0.00,WSDL version 423,2013-03-28 00:24:00,
2013-03-27 20:29:00,40.5,15.0,28.17,ENE,78,2.3,5.8,35,0.00,,,0.00,WSDL version 423,2013-03-28 00:29:00,
2013-03-27 20:34:00,40.5,15.0,28.17,NE,40,1.1,5.8,35,0.00,,,0.00,WSDL version 423,2013-03-28 00:34:00,
2013-03-27 20:39:00,40.3,14.8,28.17,SW,228,0.6,3.6,35,0.00,,,0.00,WSDL version 423,2013-03-28 00:39:00,
2013-03-27 20:44:00,40.3,14.8,28.17,WSW,250,1.3,3.1,35,0.00,,,0.00,WSDL version 423,2013-03-28 00:44:00,
2013-03-27 20:49:00,40.0,14.9,28.17,West,278,2.0,4.0,36,0.00,,,0.00,WSDL version 423,2013-03-28 00:49:00,
2013-03-27 20:54:00,39.6,14.8,28.17,ENE,75,1.4,4.0,36,0.00,,,0.00,WSDL version 423,2013-03-28 00:54:00,
2013-03-27 20:59:00,39.3,14.6,28.20,ENE,76,1.4,2.7,36,0.00,,,0.00,WSDL version 423,2013-03-28 00:59:00,
2013-03-27 21:04:00,39.2,15.0,28.20,NNE,33,2.0,4.3,37,0.00,,,0.00,WSDL version 423,2013-03-28 01:04:00,
2013-03-27 21:09:00,39.2,15.1,28.20,ENE,58,1.7,5.8,37,0.00,,,0.00,WSDL version 423,2013-03-28 01:09:00,
2013-03-27 21:14:00,39.1,15.0,28.20,South,191,0.0,5.8,37,0.00,,,0.00,WSDL version 423,2013-03-28 01:14:00,
2013-03-27 21:19:00,38.7,15.0,28.20,ENE,78,0.0,2.0,38,0.00,,,0.00,WSDL version 423,2013-03-28 01:19:00,
2013-03-27 21:24:00,38.4,15.0,28.20,ENE,70,1.0,2.5,38,0.00,,,0.00,WSDL version 423,2013-03-28 01:24:00,
2013-03-27 21:29:00,38.2,14.8,28.20,WSW,243,0.2,2.5,38,0.00,,,0.00,WSDL version 423,2013-03-28 01:29:00,
2013-03-27 21:34:00,37.9,15.0,28.20,WNW,298,0.0,2.5,39,0.00,,,0.00,WSDL version 423,2013-03-28 01:34:00,
2013-03-27 21:39:00,37.5,14.8,28.20,East,88,0.6,2.0,39,0.00,,,0.00,WSDL version 423,2013-03-28 01:39:00,
2013-03-27 21:44:00,37.2,14.8,28.20,ENE,58,2.3,2.9,40,0.00,,,0.00,WSDL version 423,2013-03-28 01:44:00,
2013-03-27 21:49:00,36.6,14.6,28.20,ESE,113,0.6,2.9,40,0.00,,,0.00,WSDL version 423,2013-03-28 01:49:00,
2013-03-27 21:54:00,36.3,14.3,28.20,SSE,158,0.0,2.2,40,0.00,,,0.00,WSDL version 423,2013-03-28 01:54:00,
2013-03-27 21:59:00,36.0,14.2,28.20,East,100,0.7,2.2,41,0.00,,,0.00,WSDL version 423,2013-03-28 01:59:00,
2013-03-27 22:04:00,35.3,14.0,28.20,North,360,1.5,2.9,41,0.00,,,0.00,WSDL version 423,2013-03-28 02:04:00,
2013-03-27 22:11:00,34.5,14.3,28.20,East,85,0.6,2.9,43,0.00,,,0.00,WSDL version 423,2013-03-28 02:11:00,
2013-03-27 22:16:00,34.3,14.2,28.20,NW,315,0.1,2.0,43,0.00,,,0.00,WSDL version 423,2013-03-28 02:16:00,
2013-03-27 22:21:00,33.7,14.1,28.20,NNW,333,0.4,2.0,44,0.00,,,0.00,WSDL version 423,2013-03-28 02:21:00,
2013-03-27 22:26:00,33.1,14.0,28.20,East,101,0.4,1.6,45,0.00,,,0.00,WSDL version 423,2013-03-28 02:26:00,
2013-03-27 22:31:00,32.9,14.5,28.20,SSE,148,0.9,2.2,47,0.00,,,0.00,WSDL version 423,2013-03-28 02:31:00,
2013-03-27 22:36:00,32.5,14.5,28.20,NNE,15,1.4,2.7,47,0.00,,,0.00,WSDL version 423,2013-03-28 02:36:00,
2013-03-27 22:41:00,32.2,15.2,28.20,NNW,329,1.2,2.9,49,0.00,,,0.00,WSDL version 423,2013-03-28 02:41:00,
2013-03-27 22:46:00,32.0,17.3,28.20,NNE,33,1.8,2.9,50,0.00,,,0.00,WSDL version 423,2013-03-28 02:46:00,
2013-03-27 22:51:00,31.8,17.1,28.20,East,79,0.7,2.5,50,0.00,,,0.00,WSDL version 423,2013-03-28 02:51:00,
2013-03-27 22:56:00,31.5,16.8,28.20,WNW,293,0.0,2.5,50,0.00,,,0.00,WSDL version 423,2013-03-28 02:56:00,
2013-03-27 23:01:00,31.0,16.4,28.20,SW,225,0.2,1.3,50,0.00,,,0.00,WSDL version 423,2013-03-28 03:01:00,
2013-03-27 23:06:00,30.8,16.2,28.20,SW,225,0.0,1.3,50,0.00,,,0.00,WSDL version 423,2013-03-28 03:06:00,
2013-03-27 23:11:00,30.4,16.0,28.20,SW,225,0.0,0.0,51,0.00,,,0.00,WSDL version 423,2013-03-28 03:11:00,
2013-03-27 23:20:00,29.8,16.1,28.20,ENE,68,0.0,1.6,52,0.00,,,0.00,WSDL version 423,2013-03-28 03:20:00,
2013-03-27 23:27:00,29.7,15.9,28.20,ENE,63,0.1,1.6,52,0.00,,,0.00,WSDL version 423,2013-03-28 03:27:00,
2013-03-27 23:37:00,29.3,15.9,28.20,SSE,158,0.0,0.0,53,0.00,,,0.00,WSDL version 423,2013-03-28 03:37:00,
2013-03-27 23:45:00,28.9,15.6,28.20,ESE,108,0.3,2.2,53,0.00,,,0.00,WSDL version 423,2013-03-28 03:45:00,
2013-03-27 23:50:00,28.8,15.8,28.20,NE,37,0.6,2.2,55,0.00,,,0.00,WSDL version 423,2013-03-28 03:50:00,
2013-03-27 23:59:00,28.6,17.1,28.20,SE,143,1.4,2.7,58,0.00,,,0.00,WSDL version 423,2013-03-28 03:59:00,